Plymouth, MA

2:58 AM EST on December 13, 2017 (GMT -0500)
Plymouth Municipal

Weather History for KPYM - August, 2014

Change the Weather History Date:

Friday, August 8, 2014

  Actual Average Record
Temperature  
Mean Temperature 68 °F -  
Max Temperature 81 °F 81 °F 96 °F (1949)
Min Temperature 55 °F 61 °F 50 °F (1971)
Cooling Degree Days 2    
Growing Degree Days 18 (Base 50)    
Moisture  
Dew Point 55 °F    
Average Humidity 67    
Maximum Humidity 87    
Minimum Humidity 43    
Precipitation  
Precipitation 0.00 in - - ()
Sea Level Pressure  
Sea Level Pressure 29.99 in    
Wind  
Wind Speed 5 mph (WNW)    
Max Wind Speed 9 mph    
Max Gust Speed -    
Visibility 10 miles    
Events      
Averages and records for this station are not official NWS values.
T = Trace of Precipitation, MM = Missing Value Source: NWS Daily Summary

Daily Weather History Graph

Daily Weather History Graph

Search for Another Location

Airport or City:

Trip Planner

Search our weather history database for the weather conditions in past years. The results will help you decide how hot, cold, wet, or windy it might be!

Date:

Astronomy

Aug. 08, 2014 Rise Set
Actual Time 5:43 AM EDT 7:52 PM EDT
Civil Twilight 5:12 AM EDT 8:23 PM EDT
Nautical Twilight 4:35 AM EDT 9:01 PM EDT
Astronomical Twilight 3:53 AM EDT 9:42 PM EDT
Moon 6:01 PM EDT (8/8) 3:12 AM EDT (8/8)
Length of Visible Light 15h 10m
Length of Day
14h 09m
Waxing Gibbous, 93% of the Moon is Illuminated
Aug 8
Waxing Gibbous
Aug 10
Full
Aug 17
Last Quarter
Aug 25
New
Sep 2
First Quarter

Hourly Weather History & Observations

Time (EDT) Temp. Heat Index Dew Point Humidity Pressure Visibility Wind Dir Wind Speed Gust Speed Precip Events Conditions
12:52 AM 59.0 °F - 54.0 °F 83% 29.94 in 10.0 mi WNW 4.6 mph - N/A   Clear
1:52 AM 55.9 °F - 52.0 °F 87% 29.94 in 10.0 mi West 3.5 mph - N/A   Clear
2:52 AM 57.0 °F - 52.0 °F 83% 29.94 in 10.0 mi West 4.6 mph - N/A   Clear
3:52 AM 55.9 °F - 52.0 °F 87% 29.94 in 10.0 mi West 4.6 mph - N/A   Clear
4:52 AM 55.9 °F - 51.1 °F 84% 29.96 in 10.0 mi WNW 5.8 mph - N/A   Clear
5:52 AM 55.0 °F - 51.1 °F 86% 29.98 in 10.0 mi WNW 4.6 mph - N/A   Clear
6:52 AM 57.0 °F - 52.0 °F 83% 29.99 in 10.0 mi WNW 5.8 mph - N/A   Clear
7:52 AM 61.0 °F - 54.0 °F 78% 30.00 in 10.0 mi WNW 9.2 mph - N/A   Clear
8:52 AM 66.0 °F - 57.0 °F 73% 30.01 in 10.0 mi NW 6.9 mph - N/A   Clear
9:52 AM 70.0 °F - 57.0 °F 63% 30.01 in 10.0 mi WNW 4.6 mph - N/A   Clear
10:52 AM 73.0 °F - 55.9 °F 55% 30.01 in 10.0 mi NNW 9.2 mph - N/A   Clear
11:52 AM 75.9 °F - 57.0 °F 52% 30.00 in 10.0 mi Variable 5.8 mph - N/A   Clear
12:52 PM 78.1 °F - 54.0 °F 43% 30.00 in 10.0 mi North 9.2 mph - N/A   Clear
1:52 PM 78.1 °F - 55.9 °F 46% 29.99 in 10.0 mi Calm Calm - N/A   Clear
2:52 PM 79.0 °F - 55.0 °F 44% 29.98 in 10.0 mi Variable 4.6 mph - N/A   Scattered Clouds
3:52 PM 80.1 °F 80.4 °F 57.0 °F 45% 29.98 in 10.0 mi ENE 6.9 mph - N/A   Mostly Cloudy
4:52 PM 78.1 °F - 59.0 °F 52% 29.97 in 10.0 mi SE 8.1 mph - N/A   Mostly Cloudy
5:52 PM 75.0 °F - 59.0 °F 57% 29.98 in 10.0 mi SSE 6.9 mph - N/A   Mostly Cloudy
6:52 PM 73.9 °F - 61.0 °F 64% 29.99 in 10.0 mi SE 4.6 mph - N/A   Clear
7:52 PM 69.1 °F - 62.1 °F 78% 30.00 in 10.0 mi Calm Calm - N/A   Clear
8:52 PM - - - N/A% 30.01 in 10.0 mi Calm Calm - N/A   Clear
9:52 PM - - - N/A% 30.02 in 10.0 mi Calm Calm - N/A   Clear
10:52 PM - - - N/A% 30.02 in 10.0 mi Calm Calm - N/A   Clear
11:52 PM - - - N/A% 30.02 in 10.0 mi WNW 4.6 mph - N/A   Clear